CW3508 Weather Reports


Display with metric or nautical units.
time (UTC)temp
F
wind
direction
speed
MPH
gust
MPH
rain 1hr
in
rain 24hr
in
rain mn
in
humidity
%
barometer
mb
20260507231528 68 161 0.0 1.0 0.00 0.55 0.21 85 1010.5
20260507231016 68 161 0.0 1.0 0.00 0.55 0.21 85 1010.4
20260507230525 68 161 0.0 1.0 0.00 0.55 0.21 85 1010.4
20260507230029 69 161 0.0 0.0 0.00 0.55 0.21 85 1010.4
20260507225523 69 161 0.0 1.0 0.00 0.55 0.21 85 1010.3
20260507225057 69 161 0.0 1.0 0.00 0.55 0.21 85 1010.3
20260507224544 69 161 0.0 1.0 0.00 0.55 0.21 84 1010.3
20260507224043 69 161 0.0 1.0 0.00 0.55 0.21 84 1010.3
20260507223528 69 161 0.0 1.0 0.00 0.55 0.21 84 1010.3
20260507223025 69 161 0.0 1.0 0.00 0.55 0.21 83 1010.3
20260507222518 69 161 0.0 1.0 0.00 0.55 0.21 84 1010.3
20260507222030 70 161 0.0 1.0 0.00 0.55 0.21 83 1010.3
20260507221540 70 161 0.0 1.0 0.00 0.55 0.21 82 1010.3
20260507221045 70 161 0.0 0.0 0.00 0.55 0.21 83 1010.3
20260507220021 70 161 0.0 1.0 0.00 0.57 0.21 82 1010.3
20260507215520 70 161 0.0 3.0 0.00 0.57 0.21 81 1010.3
20260507215037 70 161 0.0 4.0 0.00 0.57 0.21 80 1010.3
20260507214534 70 161 1.0 4.0 0.00 0.57 0.21 81 1010.3
20260507214035 70 161 0.0 3.0 0.00 0.57 0.21 83 1010.2
20260507213521 70 160 1.0 3.0 0.00 0.57 0.21 82 1010.2
20260507212535 70 169 0.0 2.0 0.00 0.57 0.21 83 1010.2
20260507212038 70 169 0.0 2.0 0.00 0.57 0.21 83 1010.2
20260507211548 70 169 0.0 1.0 0.00 0.57 0.21 81 1010.2
20260507211044 70 169 0.0 2.0 0.00 0.57 0.21 81 1009.8
20260507210532 70 169 0.0 2.0 0.00 0.57 0.21 81 1009.8
20260507210031 71 169 0.0 2.0 0.00 0.72 0.21 81 1009.8
20260507205528 71 169 0.0 2.0 0.00 0.72 0.21 82 1010.2
20260507205017 70 169 0.0 3.0 0.00 0.72 0.21 81 1010.2
20260507204521 70 169 1.0 3.0 0.00 0.72 0.21 79 1010.2
20260507203541 70 187 1.0 2.0 0.00 0.72 0.21 81 1010.3
20260507203036 70 187 0.0 1.0 0.00 0.72 0.21 82 1010.3
20260507202538 70 187 0.0 3.0 0.00 0.72 0.21 82 1010.3
20260507202020 70 187 1.0 3.0 0.00 0.72 0.21 81 1010.3
20260507201527 70 136 1.0 2.0 0.00 0.72 0.21 83 1010.3
20260507201042 69 136 0.0 2.0 0.00 0.72 0.21 82 1010.7
20260507200023 69 136 1.0 3.0 0.00 0.72 0.21 81 1010.7
20260507195526 69 136 1.0 2.0 0.00 0.72 0.21 82 1010.7
20260507195029 69 136 1.0 2.0 0.00 0.72 0.21 83 1010.7
20260507194529 69 136 0.0 2.0 0.00 0.72 0.21 84 1010.7
20260507194017 69 136 0.0 1.0 0.00 0.72 0.21 84 1010.7
20260507193517 69 136 0.0 1.0 0.00 0.72 0.21 84 1010.7
20260507193032 69 136 1.0 2.0 0.00 0.72 0.21 82 1010.7
20260507192532 69 136 0.0 3.0 0.00 0.72 0.21 83 1010.7
20260507192035 69 136 1.0 3.0 0.00 0.72 0.21 82 1010.7
20260507191518 68 134 1.0 4.0 0.00 0.72 0.21 84 1010.7
20260507191037 68 132 1.0 4.0 0.00 0.72 0.21 85 1010.7
20260507190542 68 146 0.0 2.0 0.00 0.72 0.21 85 1010.7
20260507190022 67 194 0.0 2.0 0.00 0.72 0.21 85 1010.7
20260507185537 67 194 1.0 2.0 0.00 0.72 0.21 86 1010.8
20260507185038 67 150 1.0 2.0 0.00 0.72 0.21 87 1010.8
20260507184520 66 324 0.0 2.0 0.00 0.72 0.21 89 1010.8
20260507184054 66 331 0.0 2.0 0.00 0.72 0.21 90 1011.3
20260507183519 65 149 0.0 1.0 0.00 0.72 0.21 91 1011.3
20260507183032 65 149 0.0 1.0 0.00 0.72 0.21 90 1011.3
20260507182539 65 149 0.0 2.0 0.00 0.72 0.21 89 1011.4
20260507182027 65 149 0.0 2.0 0.00 0.72 0.21 91 1011.4
20260507181558 65 182 0.0 2.0 0.00 0.72 0.21 91 1011.4
20260507181037 65 182 0.0 2.0 0.00 0.72 0.21 89 1011.4
20260507180526 65 182 0.0 4.0 0.00 0.72 0.21 90 1011.4
20260507180025 64 182 2.0 4.0 0.00 0.72 0.21 90 1011.4
20260507175539 64 226 1.0 3.0 0.00 0.72 0.21 92 1011.7
20260507175055 64 227 1.0 3.0 0.00 0.72 0.21 92 1011.7
20260507174526 64 223 0.0 2.0 0.00 0.72 0.21 93 1011.7
20260507174056 64 223 1.0 2.0 0.00 0.72 0.21 93 1011.7
20260507173536 64 223 0.0 2.0 0.00 0.72 0.21 93 1011.7
20260507173020 64 223 0.0 2.0 0.00 0.72 0.21 94 1011.7
20260507172524 63 223 0.0 2.0 0.00 0.72 0.21 95 1011.9
20260507172057 63 223 0.0 2.0 0.00 0.72 0.21 95 1011.9
20260507171027 62 223 1.0 2.0 0.00 0.72 0.21 95 1011.9
20260507170606 62 223 0.0 1.0 0.00 0.72 0.21 95 1011.9
20260507170046 62 223 0.0 2.0 0.00 0.72 0.21 95 1011.9
20260507165532 62 192 0.0 1.0 0.00 0.72 0.21 96 1012.0
20260507165038 62 270 0.0 0.0 0.00 0.72 0.21 96 1012.0
20260507164538 62 270 0.0 2.0 0.00 0.72 0.21 97 1012.0
20260507164026 62 270 0.0 2.0 0.00 0.72 0.21 96 1011.8
20260507163523 61 271 0.0 2.0 0.00 0.72 0.21 97 1011.8
20260507163033 61 279 0.0 1.0 0.00 0.72 0.21 96 1011.8
20260507162538 61 279 0.0 0.0 0.00 0.72 0.21 97 1011.7
20260507162029 61 261 0.0 0.0 0.00 0.72 0.21 96 1011.7
20260507161539 61 261 0.0 0.0 0.00 0.72 0.21 96 1011.7
20260507161042 61 261 0.0 0.0 0.00 0.72 0.21 96 1011.3
20260507160524 61 264 0.0 0.0 0.00 0.72 0.21 96 1011.3
20260507160056 61 264 0.0 1.0 0.00 0.72 0.21 96 1011.3
20260507155525 62 265 0.0 2.0 0.00 0.72 0.21 96 1011.3
20260507155036 62 144 0.0 1.0 0.00 0.72 0.21 97 1011.3
20260507154520 62 144 0.0 1.0 0.00 0.72 0.21 97 1011.3
20260507154026 62 144 0.0 1.0 0.00 0.72 0.21 97 1011.0
20260507153517 62 144 0.0 2.0 0.00 0.72 0.21 97 1011.0
20260507153035 62 144 0.0 2.0 0.00 0.72 0.21 97 1011.0
20260507152524 63 273 0.0 0.0 0.00 0.72 0.21 97 1010.9
20260507152101 63 273 0.0 1.0 0.00 0.72 0.21 97 1010.9
20260507151528 63 273 0.0 3.0 0.00 0.72 0.21 97 1010.9
20260507151026 63 273 0.0 3.0 0.00 0.72 0.21 97 1010.8
20260507150534 63 171 0.0 0.0 0.00 0.72 0.21 98 1010.8
20260507150035 63 171 0.0 0.0 0.00 0.72 0.21 98 1010.8
20260507145525 62 172 0.0 0.0 0.00 0.72 0.21 98 1010.8
20260507145026 63 172 0.0 0.0 0.00 0.72 0.21 98 1010.8
20260507144534 63 171 0.0 1.0 0.00 0.72 0.21 98 1010.8
20260507144024 62 171 0.0 0.0 0.00 0.72 0.21 98 1010.7
20260507143545 62 172 0.0 0.0 0.00 0.72 0.21 98 1010.7
20260507143046 62 171 0.0 0.0 0.00 0.72 0.21 98 1010.7
20260507142532 62 171 0.0 0.0 0.00 0.72 0.21 98 1010.8
20260507142020 61 171 0.0 1.0 0.00 0.72 0.21 97 1010.8
20260507141534 61 171 0.0 2.0 0.00 0.72 0.21 98 1010.8
20260507141019 62 172 1.0 2.0 0.01 0.72 0.21 98 1010.7
20260507140537 61 171 0.0 1.0 0.01 0.72 0.21 98 1010.7
20260507140016 62 172 0.0 1.0 0.01 0.72 0.21 98 1010.7
20260507135559 61 171 0.0 0.0 0.01 0.72 0.21 98 1010.3
20260507135026 61 171 0.0 0.0 0.01 0.72 0.21 98 1010.3
20260507134520 61 171 0.0 0.0 0.01 0.72 0.21 98 1010.3
20260507134028 61 171 0.0 0.0 0.01 0.72 0.21 98 1010.4
20260507133034 61 171 0.0 0.0 0.01 0.72 0.21 98 1010.4
20260507132521 61 171 0.0 0.0 0.01 0.72 0.21 98 1010.1
20260507132041 61 171 0.0 0.0 0.01 0.72 0.21 97 1010.1
20260507131519 61 171 0.0 0.0 0.01 0.72 0.21 98 1010.1
20260507131059 61 172 0.0 0.0 0.00 0.71 0.20 98 1009.7
20260507130536 61 171 0.0 0.0 0.00 0.71 0.20 98 1009.7
20260507130025 61 172 0.0 0.0 0.00 0.71 0.20 97 1009.7
20260507125541 61 171 0.0 0.0 0.00 0.71 0.20 97 1009.7
20260507125049 61 172 0.0 0.0 0.00 0.71 0.20 97 1009.7
20260507124514 61 172 0.0 0.0 0.00 0.71 0.20 97 1009.7
20260507124033 61 171 0.0 0.0 0.00 0.71 0.20 97 1009.7
20260507123531 61 171 0.0 0.0 0.00 0.71 0.20 98 1009.7
20260507123031 61 171 0.0 0.0 0.00 0.71 0.20 98 1009.7
20260507122529 61 172 0.0 0.0 0.00 0.71 0.20 98 1009.0
20260507122019 61 171 0.0 0.0 0.00 0.71 0.20 97 1009.0
20260507121557 61 171 0.0 0.0 0.00 0.71 0.20 97 1009.0
20260507121046 61 172 0.0 0.0 0.00 0.71 0.20 97 1008.6
20260507120541 61 171 0.0 0.0 0.00 0.71 0.20 97 1008.6
20260507120045 61 171 0.0 0.0 0.00 0.71 0.20 97 1008.6
20260507115529 61 171 0.0 0.0 0.00 0.71 0.20 97 1008.7
20260507114534 61 171 0.0 0.0 0.00 0.71 0.20 97 1008.7
20260507114033 61 171 0.0 0.0 0.00 0.71 0.20 97 1008.6
20260507113551 61 172 0.0 0.0 0.00 0.71 0.20 97 1008.6
20260507113024 61 171 0.0 0.0 0.00 0.71 0.20 97 1008.6
20260507112532 61 172 0.0 0.0 0.00 0.71 0.20 97 1008.2
20260507112034 61 171 0.0 0.0 0.00 0.71 0.20 97 1008.2
20260507111550 61 171 0.0 0.0 0.00 0.71 0.20 97 1008.2
20260507111020 61 171 0.0 2.0 0.00 0.71 0.20 97 1008.6
20260507110520 61 171 0.0 2.0 0.00 0.71 0.20 97 1008.6
20260507110022 62 171 1.0 2.0 0.00 0.71 0.20 97 1008.6
20260507105556 62 240 0.0 0.0 0.00 0.71 0.20 97 1008.1
20260507105042 62 240 0.0 2.0 0.00 0.71 0.20 97 1008.1
20260507104546 62 240 0.0 2.0 0.00 0.71 0.20 96 1008.1
20260507104032 63 215 0.0 1.0 0.00 0.71 0.20 97 1007.6
20260507103524 63 215 0.0 2.0 0.00 0.71 0.20 97 1007.6
20260507103030 64 13 0.0 3.0 0.00 0.71 0.20 97 1007.6
20260507102529 64 12 0.0 3.0 0.00 0.71 0.20 97 1007.6
20260507102044 64 321 0.0 0.0 0.00 0.71 0.20 97 1007.6
20260507101546 65 321 0.0 0.0 0.00 0.71 0.20 97 1007.6
20260507101054 65 321 0.0 0.0 0.00 0.71 0.20 98 1006.9
20260507100521 65 321 0.0 0.0 0.00 0.71 0.20 97 1006.9
20260507100030 65 321 0.0 0.0 0.01 0.71 0.20 97 1006.9
20260507095604 65 321 0.0 0.0 0.03 0.71 0.20 97 1007.0
20260507095032 65 321 0.0 0.0 0.04 0.71 0.20 97 1007.0
20260507094528 65 321 0.0 0.0 0.05 0.71 0.20 97 1007.0
20260507094028 65 321 0.0 0.0 0.06 0.71 0.20 98 1007.0
20260507093527 65 321 0.0 0.0 0.10 0.71 0.20 98 1007.0
20260507093018 65 321 0.0 0.0 0.11 0.71 0.20 98 1007.0
20260507092554 65 321 0.0 0.0 0.11 0.71 0.20 97 1007.0
20260507092106 65 321 0.0 0.0 0.11 0.71 0.20 97 1007.0
20260507091534 66 321 0.0 0.0 0.11 0.71 0.20 97 1007.0
20260507091023 66 321 0.0 0.0 0.11 0.71 0.20 97 1006.7
20260507090532 66 321 0.0 0.0 0.11 0.71 0.20 97 1006.7
20260507090036 66 321 0.0 0.0 0.10 0.70 0.19 97 1006.7
20260507085524 66 321 0.0 0.0 0.08 0.68 0.17 97 1007.0
20260507085039 66 321 0.0 0.0 0.07 0.67 0.16 97 1007.0
20260507084517 66 321 0.0 0.0 0.05 0.65 0.14 97 1007.0
20260507084032 66 321 0.0 0.0 0.04 0.64 0.13 97 1006.6
20260507083526 66 321 0.0 0.0 0.00 0.60 0.09 97 1006.6
20260507083034 66 321 0.0 0.0 0.01 0.60 0.09 97 1006.6
20260507082524 67 321 0.0 0.0 0.03 0.60 0.09 97 1006.5
20260507082034 67 321 0.0 0.0 0.03 0.60 0.09 98 1006.5
20260507081523 67 321 0.0 0.0 0.03 0.60 0.09 98 1006.5
20260507081101 67 321 0.0 0.0 0.04 0.60 0.09 98 1006.5
20260507080533 67 321 0.0 0.0 0.05 0.60 0.09 98 1006.5
20260507080020 67 321 0.0 0.0 0.05 0.60 0.09 98 1006.5
20260507075518 67 321 0.0 0.0 0.06 0.60 0.09 98 1006.6
20260507075034 67 321 0.0 0.0 0.06 0.60 0.09 98 1006.6
20260507074545 67 321 0.0 0.0 0.06 0.60 0.09 98 1006.6
20260507074036 67 321 0.0 0.0 0.06 0.60 0.09 98 1007.0
20260507073537 67 321 0.0 0.0 0.05 0.59 0.08 98 1007.0
20260507073032 67 321 0.0 0.0 0.05 0.59 0.08 98 1007.0
20260507072523 67 321 0.0 0.0 0.03 0.57 0.06 97 1006.6
20260507072024 67 321 0.0 1.0 0.03 0.57 0.06 97 1006.6
20260507071544 67 321 0.0 2.0 0.03 0.57 0.06 97 1006.6
20260507071043 67 321 0.0 3.0 0.02 0.56 0.05 97 1005.5
20260507070526 67 321 0.0 4.0 0.01 0.55 0.04 97 1005.5
20260507065528 67 163 1.0 2.0 0.00 0.54 0.03 97 1007.5
20260507065027 67 335 0.0 0.0 0.00 0.54 0.03 97 1007.5
20260507064036 67 335 0.0 0.0 0.00 0.54 0.03 97 1007.2
20260507063536 67 335 0.0 0.0 0.00 0.54 0.03 97 1007.2
20260507063040 67 335 0.0 0.0 0.00 0.54 0.03 97 1007.2
20260507062534 67 335 0.0 0.0 0.01 0.54 0.03 97 1007.6
20260507062019 67 335 0.0 0.0 0.01 0.54 0.03 97 1007.6
20260507061522 67 335 0.0 0.0 0.01 0.54 0.03 97 1007.6
20260507061018 67 335 0.0 0.0 0.01 0.54 0.03 97 1007.6
20260507060515 67 335 0.0 0.0 0.02 0.54 0.03 97 1007.6
20260507060028 67 335 0.0 0.0 0.03 0.54 0.03 97 1007.6
20260507055526 67 335 0.0 0.0 0.03 0.54 0.03 97 1008.1
20260507055044 67 335 0.0 0.0 0.03 0.54 0.03 97 1008.1
20260507054529 67 335 0.0 0.0 0.03 0.54 0.03 97 1008.1
20260507054029 67 335 0.0 0.0 0.03 0.54 0.03 97 1008.3
20260507053519 67 335 0.0 0.0 0.03 0.54 0.03 97 1008.3
20260507053029 67 335 0.0 0.0 0.03 0.54 0.03 97 1008.3
20260507052519 68 335 0.0 0.0 0.02 0.53 0.02 97 1008.5
20260507052022 68 335 0.0 0.0 0.02 0.53 0.02 97 1008.5
20260507051539 68 335 0.0 0.0 0.02 0.53 0.02 97 1008.5
20260507051035 68 335 0.0 0.0 0.03 0.53 0.02 97 1008.4
20260507050534 68 335 0.0 1.0 0.03 0.52 0.01 97 1008.4
20260507050028 68 335 0.0 1.0 0.03 0.51 0.00 97 1008.4
20260507045539 68 335 0.0 0.0 0.04 0.51 0.51 97 1007.8
20260507045043 68 335 0.0 0.0 0.05 0.51 0.51 97 1007.8
20260507044547 68 335 0.0 1.0 0.06 0.51 0.51 97 1007.8
20260507044025 68 335 0.0 1.0 0.09 0.51 0.51 97 1008.1
20260507043523 68 335 0.0 0.0 0.10 0.51 0.51 97 1008.1
20260507043040 68 335 0.0 1.0 0.10 0.51 0.51 97 1008.1
20260507042533 68 335 0.0 1.0 0.10 0.51 0.51 97 1008.7
20260507042037 68 335 0.0 0.0 0.11 0.51 0.51 97 1008.7
20260507041538 68 335 0.0 0.0 0.11 0.51 0.51 97 1008.7
20260507041026 68 335 0.0 3.0 0.11 0.50 0.50 97 1007.7
20260507040528 68 335 1.0 3.0 0.11 0.49 0.49 97 1007.7
20260507040032 68 339 0.0 0.0 0.11 0.48 0.48 97 1007.7
20260507035520 68 339 0.0 0.0 0.19 0.47 0.47 97 1007.9
20260507035039 68 339 0.0 1.0 0.21 0.46 0.46 97 1007.9
20260507034540 68 339 0.0 1.0 0.21 0.44 0.44 97 1007.9
20260507034047 68 339 0.0 2.0 0.20 0.42 0.42 97 1008.3
20260507033557 68 339 1.0 2.0 0.20 0.41 0.41 97 1008.3
20260507033040 68 194 0.0 2.0 0.20 0.41 0.41 97 1008.3
20260507032543 68 167 0.0 0.0 0.20 0.41 0.41 97 1009.0
20260507032023 68 167 0.0 0.0 0.21 0.40 0.40 97 1009.0
20260507031536 68 167 0.0 0.0 0.22 0.40 0.40 96 1009.0
20260507031036 68 167 0.0 0.0 0.21 0.39 0.39 96 1009.2
20260507030540 68 167 0.0 1.0 0.21 0.38 0.38 96 1009.2
20260507030057 68 167 0.0 1.0 0.19 0.36 0.36 96 1009.2
20260507025537 68 165 0.0 0.0 0.11 0.28 0.28 96 1009.6
20260507025026 68 165 0.0 1.0 0.08 0.25 0.25 96 1009.6
20260507024518 69 165 0.0 1.0 0.05 0.22 0.22 96 1009.6
20260507024035 69 165 0.0 1.0 0.05 0.22 0.22 96 1008.7
20260507023533 69 165 0.0 1.0 0.04 0.21 0.21 96 1008.7
20260507023033 69 315 0.0 1.0 0.04 0.21 0.21 96 1008.7
20260507022526 70 315 0.0 0.0 0.03 0.20 0.20 96 1008.6
20260507022025 70 315 0.0 0.0 0.02 0.19 0.19 96 1008.6
20260507021525 70 315 0.0 2.0 0.01 0.18 0.18 96 1008.6
20260507021022 71 304 0.0 2.0 0.00 0.17 0.18 96 1008.1
20260507020523 72 315 0.0 1.0 0.00 0.17 0.17 97 1008.1
20260507020022 72 134 0.0 1.0 0.00 0.17 0.17 97 1008.1
20260507015601 72 134 0.0 1.0 0.00 0.17 0.17 97 1008.1
20260507015031 72 134 0.0 1.0 0.00 0.17 0.17 97 1008.1
20260507014518 72 134 0.0 1.0 0.00 0.17 0.17 97 1008.1
20260507014019 72 134 0.0 1.0 0.00 0.17 0.17 97 1007.6
20260507013554 72 134 0.0 0.0 0.00 0.17 0.17 97 1007.6
20260507013017 72 134 0.0 0.0 0.00 0.17 0.17 97 1007.6
20260507012553 72 134 0.0 0.0 0.00 0.17 0.17 97 1007.7
20260507012020 72 134 0.0 2.0 0.00 0.17 0.17 97 1007.7
20260507011525 72 134 0.0 2.0 0.00 0.17 0.17 97 1007.7
20260507011032 72 134 0.0 1.0 0.00 0.17 0.17 97 1007.0
20260507010534 72 134 0.0 1.0 0.00 0.17 0.17 97 1007.0
20260507010023 72 134 0.0 0.0 0.00 0.17 0.17 97 1007.0
20260507005518 72 134 0.0 0.0 0.00 0.17 0.17 97 1007.9
20260507005051 73 134 0.0 0.0 0.00 0.17 0.17 97 1007.9
20260507004523 73 134 0.0 0.0 0.00 0.17 0.17 97 1007.9
20260507004031 73 134 0.0 0.0 0.00 0.17 0.17 97 1008.1
20260507003532 73 134 0.0 0.0 0.00 0.17 0.17 97 1008.1
20260507002548 73 134 0.0 0.0 0.00 0.17 0.17 96 1007.4
20260507002032 73 134 0.0 0.0 0.00 0.17 0.17 96 1007.4
20260507001534 73 134 0.0 0.0 0.00 0.17 0.17 96 1007.4
20260507001019 73 134 0.0 0.0 0.00 0.17 0.17 96 1007.6
20260507000519 73 134 0.0 0.0 0.00 0.17 0.17 96 1007.6
20260507000022 73 134 0.0 0.0 0.00 0.17 0.17 96 1007.6
20260506235544 73 134 0.0 0.0 0.00 0.17 0.17 96 1007.4
20260506235021 73 134 0.0 0.0 0.00 0.17 0.17 96 1007.4
20260506234518 73 162 0.0 0.0 0.00 0.17 0.17 96 1007.4
20260506234037 73 161 0.0 0.0 0.00 0.17 0.17 96 1007.8
20260506233530 73 161 0.0 0.0 0.00 0.17 0.17 96 1007.8
20260506233039 73 161 0.0 0.0 0.00 0.17 0.17 96 1007.8
20260506232545 73 161 0.0 0.0 0.00 0.17 0.17 96 1008.2
20260506232017 73 161 0.0 0.0 0.00 0.17 0.17 96 1008.2